Regional Weather Roundup
Issued by NWS Albany, NY

Home | Current Version | Previous Version | Text Only | Print | Product List | Glossary On
Versions: 1 2 3 4 5 6 7 8 9 10 11 12 13 14 15 16 17 18 19 20 21 22 23 24 25 26 27 28 29 30 31 32 33 34 35 36 37 38 39 40 41 42 43 44 45 46 47 48 49 50
000
ASUS41 KALY 201010
RWRALY

NEW YORK STATE HOURLY WEATHER ROUNDUP
NATIONAL WEATHER SERVICE ALBANY NY
600 AM EDT SUN AUG 20 2017

NOTE: "FAIR" INDICATES FEW OR NO CLOUDS BELOW 12,000 FEET WITH NO
SIGNIFICANT WEATHER AND/OR NO OBSTRUCTIONS TO VISIBILITY.

NYZ032-033-038>043-046>054-057>066-NYZ062>081-082-084-201100-
EAST


CITY           SKY/WX    TMP DP  RH WIND       PRES   REMARKS
ALBANY         PTCLDY    65  59  81 SW7       29.97R
GLENS FALLS    CLOUDY    62  60  93 S8        29.93R
POUGHKEEPSIE   CLEAR     65  60  84 SW6       29.96R
NEWBURGH       CLEAR     64  63  94 W14       29.99R
MONTGOMERY     CLEAR     63  60  90 VRB5      29.99R
WHITE PLAINS   CLEAR     68  61  78 W10G18    29.97R
ISLIP          PTCLDY    69  62  78 NW6       29.95R
NEW YORK CITY  CLEAR     71  63  75 NW15      29.97R
CENTRAL PARK   CLEAR     70  61  73 VRB5      30.01R
$$

NYZ005>009-017-018-044>046-055-056-201100-
CENTRAL


CITY           SKY/WX    TMP DP  RH WIND       PRES   REMARKS
FULTON         PTCLDY    64  61  90 NW5       30.01R
SYRACUSE       MOCLDY    63  62  97 W9        30.01R
ROME           CLOUDY    63  63 100 NW6       30.00R
ELMIRA         CLEAR     57  57 100 W6        30.05R
BINGHAMTON     CLEAR     57  57 100 W6        30.06R
MONTICELLO     PTCLDY    60  59  96 W9        30.03R
$$

NYZ026>034-041>043-087-201100-
NORTH


CITY           SKY/WX    TMP DP  RH WIND       PRES   REMARKS
WATERTOWN      CLEAR     60  60 100 CALM      29.99R
FORT DRUM      NOT AVBL
OGDENSBURG     FAIR      62  60  94 SW3       29.96R
MASSENA        CLEAR     62  60  93 W7        29.95R
SARANAC LAKE   CLOUDY    59  58  96 VRB3      29.96R
PLATTSBURGH    MOCLDY    66  59  78 W3        29.90R
$$

NYZ001>004-010>016-019>021-085-201100-
WEST


CITY           SKY/WX    TMP DP  RH WIND       PRES   REMARKS
NIAGARA FALLS  MOCLDY    61  56  83 CALM      30.03R
BUFFALO        PTCLDY    62  56  80 S5        30.04R
DUNKIRK        CLEAR     62  56  80 S7        30.05R
JAMESTOWN      PTCLDY    55  55 100 SW6       30.10R
WELLSVILLE     CLEAR     58  54  86 W7        30.11R
ROCHESTER      PTCLDY    60  57  89 SW5       30.04R
PENN YAN       CLEAR     61  55  81 W5        30.05R
$$

             KEY
       WCI = WIND CHILL INDEX
       VSB = VISIBILITY
       HX  = HEAT INDEX
$$



USA.gov is the U.S. government's official web portal to all federal, state and local government web resources and services.